NOAA 16 DEB

Satellite information

Favourite Embed

Satellite Type and Status

DEBRISIN ORBIT

Key statistics

Satellite NOAA 16 DEB at a glance.

Uptime

8997

Days in orbit

Revolutions

≈ 14.5

Per day

Orbit

SSO

Sun Synchronous Orbit

Inclination

99.1

Latest

Satellite identification and parameters

Extended collection of information and parameters for NOAA 16 DEB.

Object identification

Identified? True

Debris? True

Object name: NOAA 16 DEB

International designator: 2000-055FG

Object number (NORAD): 41256

Object ID (CCSDS): 41256

Country: UNITED STATES OF AMERICA (US)

Current information (Y/N): Y

RCS size: SMALL

Orbital parameters

Period: 99.485 minutes

Inclination: 99.1021 deg

SMA: 7112.114 km

Apoapsis: 744.219 km

Periapsis: 723.739 km

RAAN: 356.6604 deg

Eccentricy: 0.0014398

Argument of periapsis: 297.9259 deg

Mean anomaly: 62.0473 deg

Mean motion: 14.47453831 rev/day

Mean motion (dot): 0.00010014 rev/day2

B* drag term: 0.0027339 1/REarth

Two-line elements (TLE)

Creation date: May 8, 2025, 7:06 a.m.

Reference frame: TEME

Reference center: EARTH

Epoch: May 6, 2025, 8:20 p.m. UTC

TLE line 0: 0 NOAA 16 DEB

TLE line 1: 1 41256U 00055FG 25126.84746785 .00010014 00000-0 27339-2 0 9995

TLE line 2: 2 41256 99.1021 356.6604 0014398 297.9259 62.0473 14.47453831485188

Live tracking on map

Real-time ground track for satellite NOAA 16 DEB.

In-orbit conjunctions

A list of the most updated potential collisions computed for object NOAA 16 DEB.

Target Orbit TCA Probability of collision Miss distance Type
SL-8 R/B LEO 2025-02-18 18:08:07 0.0005213252 238.0 (m) ROCKET BODY

Associated space launch

The NOAA K, L and M POES satellites begin the fifth generation of improved environmental monitoring in support of NOAA missions. The instrument payload has significant improvements and additions/deletions. The instrument changes have effected the spacecraft subsystems and data formats.

NOAA 16 DEB was lifted into orbit during the mission ‘Titan II SLV | NOAA 16’, on board a Titan II SLV space rocket.

The launch took place on Sept. 21, 2000, 10:22 a.m. from Space Launch Complex 4W.

For more information about the launch, click the button.

Launch to space Titan II SLV | NOAA 16
Titan II SLV | NOAA 16

Agency: N/A

Status: Launch Successful

Launch date: Sept. 21, 2000, 10:22 a.m. UTC

Rocket: Titan II SLV

Launch pad: Space Launch Complex 4W

Location: Vandenberg SFB, CA, USA

...

Latest news about this satellite

There are no fresh news available about this satellite. Check back as we update our databases every day.


Newsletter sign-up

Weekly statistics, charts and insights to help you stay on top of the space industry.